06-09-2022, 00:00:09,    133,    0.0,   12.9,   0.00,   0.00, 1010.3,    0.0, -999.0
06-09-2022, 00:00:19,    133,    0.0,   13.0,   0.00,   0.00, 1010.3,    0.0, -999.0
06-09-2022, 00:00:29,    133,    0.0,   12.9,   0.00,   0.00, 1010.3,    0.0, -999.0
06-09-2022, 00:00:39,    133,    0.0,   12.9,   0.00,   0.00, 1010.3,    0.0, -999.0
06-09-2022, 00:00:49,    133,    0.0,   12.9,   0.00,   0.00, 1010.3,    0.0, -999.0
06-09-2022, 00:00:59,    134,    0.0,   13.0,   0.00,   0.00, 1010.3,    0.0, -999.0
06-09-2022, 00:01:09,    134,    0.0,   12.9,   0.00,   0.00, 1010.4,    0.0, -999.0
06-09-2022, 00:01:19,    133,    0.0,   12.9,   0.00,   0.00, 1010.4,    0.0, -999.0
06-09-2022, 00:01:29,    133,    0.0,   12.9,   0.00,   0.00, 1010.3,    0.0, -999.0
06-09-2022, 00:01:39,    133,    0.0,   12.9,   0.00,   0.00, 1010.3,    0.0, -999.0
06-09-2022, 00:01:49,    133,    0.0,   12.9,   0.00,   0.00, 1010.3,    0.0, -999.0
06-09-2022, 00:01:59,    134,    0.0,   12.9,   0.00,   0.00, 1010.3,    0.1, -999.0
06-09-2022, 00:02:08,    133,    0.0,   12.9,   0.00,   0.00, 1010.3,    0.1, -999.0
06-09-2022, 00:02:19,    133,    0.0,   12.8,   0.00,   0.00, 1010.3,    0.3, -999.0
06-09-2022, 00:02:29,    133,    0.0,   12.9,   0.00,   0.00, 1010.4,    0.2, -999.0
06-09-2022, 00:02:38,    134,    0.0,   12.9,   0.00,   0.00, 1010.3,    0.1, -999.0
06-09-2022, 00:02:48,    134,    0.0,   12.9,   0.00,   0.00, 1010.3,    0.0, -999.0
06-09-2022, 00:02:59,    134,    0.0,   12.9,   0.00,   0.00, 1010.3,    0.0, -999.0
06-09-2022, 00:03:08,    134,    0.0,   13.0,   0.00,   0.00, 1010.3,    0.0, -999.0
06-09-2022, 00:03:18,    133,    0.0,   13.0,   0.00,   0.00, 1010.3,    0.0, -999.0
06-09-2022, 00:03:28,    134,    0.0,   12.9,   0.00,   0.00, 1010.3,    0.0, -999.0
06-09-2022, 00:03:38,    133,    0.0,   12.9,   0.00,   0.00, 1010.3,    0.0, -999.0
06-09-2022, 00:03:48,    133,    0.0,   13.0,   0.00,   0.00, 1010.3,    0.1, -999.0
06-09-2022, 00:03:58,    133,    0.0,   13.0,   0.00,   0.00, 1010.3,    0.1, -999.0
06-09-2022, 00:04:08,    133,    0.0,   13.0,   0.00,   0.00, 1010.3,    0.0, -999.0
06-09-2022, 00:04:18,    134,    0.0,   12.9,   0.00,   0.00, 1010.3,    0.0, -999.0
06-09-2022, 00:04:28,    134,    0.0,   13.0,   0.00,   0.00, 1010.3,    0.0, -999.0
06-09-2022, 00:04:38,    134,    0.0,   13.0,   0.00,   0.00, 1010.3,    0.0, -999.0
06-09-2022, 00:04:48,    134,    0.0,   13.0,   0.00,   0.00, 1010.3,    0.0, -999.0
06-09-2022, 00:04:58,    133,    0.0,   13.0,   0.00,   0.00, 1010.3,    0.0, -999.0
06-09-2022, 00:05:08,    133,    0.0,   13.0,   0.00,   0.00, 1010.3,    0.0, -999.0
06-09-2022, 00:05:17,    133,    0.0,   12.9,   0.00,   0.00, 1010.2,    0.0, -999.0
06-09-2022, 00:05:28,    133,    0.0,   12.9,   0.00,   0.00, 1010.3,    0.0, -999.0
06-09-2022, 00:05:38,    134,    0.0,   12.8,   0.00,   0.00, 1010.3,    0.0, -999.0
06-09-2022, 00:05:47,    134,    0.0,   12.9,   0.00,   0.00, 1010.2,    0.0, -999.0
06-09-2022, 00:05:58,    134,    0.0,   12.8,   0.00,   0.00, 1010.3,    0.0, -999.0
06-09-2022, 00:06:07,    134,    0.0,   12.9,   0.00,   0.00, 1010.3,    0.0, -999.0
06-09-2022, 00:06:17,    133,    0.0,   12.9,   0.00,   0.00, 1010.3,    0.0, -999.0
06-09-2022, 00:06:27,    133,    0.0,   13.0,   0.00,   0.00, 1010.2,    0.0, -999.0
06-09-2022, 00:06:37,    133,    0.0,   13.0,   0.00,   0.00, 1010.2,    0.3, -999.0
06-09-2022, 00:06:47,    134,    0.0,   13.0,   0.00,   0.00, 1010.2,    0.0, -999.0
06-09-2022, 00:06:57,    133,    0.0,   12.9,   0.00,   0.00, 1010.2,    0.1, -999.0
06-09-2022, 00:07:07,    134,    0.0,   13.0,   0.00,   0.00, 1010.2,    0.3, -999.0
06-09-2022, 00:07:17,    133,    0.0,   13.0,   0.00,   0.00, 1010.2,    0.0, -999.0
06-09-2022, 00:07:27,    134,    0.0,   12.9,   0.00,   0.00, 1010.2,    0.0, -999.0
06-09-2022, 00:07:37,    133,    0.0,   12.8,   0.00,   0.00, 1010.2,    0.0, -999.0
06-09-2022, 00:07:47,    133,    0.0,   12.9,   0.00,   0.00, 1010.2,    0.0, -999.0
06-09-2022, 00:07:57,    133,    0.0,   12.9,   0.00,   0.00, 1010.2,    0.0, -999.0
06-09-2022, 00:08:07,    134,    0.0,   13.0,   0.00,   0.00, 1010.2,    0.0, -999.0
06-09-2022, 00:08:17,    133,    0.0,   13.0,   0.00,   0.00, 1010.2,    0.0, -999.0
06-09-2022, 00:08:26,    134,    0.0,   12.9,   0.00,   0.00, 1010.2,    0.0, -999.0
06-09-2022, 00:08:37,    133,    0.0,   13.0,   0.00,   0.00, 1010.2,    0.0, -999.0
06-09-2022, 00:08:46,    133,    0.0,   13.0,   0.00,   0.00, 1010.2,    0.0, -999.0
06-09-2022, 00:08:56,    134,    0.0,   13.0,   0.00,   0.00, 1010.2,    0.0, -999.0
06-09-2022, 00:09:07,    133,    0.0,   13.0,   0.00,   0.00, 1010.2,    0.0, -999.0
06-09-2022, 00:09:16,    133,    0.0,   13.0,   0.00,   0.00, 1010.2,    0.0, -999.0
06-09-2022, 00:09:26,    134,    0.0,   13.0,   0.00,   0.00, 1010.2,    0.0, -999.0
06-09-2022, 00:09:36,    133,    0.0,   13.0,   0.00,   0.00, 1010.2,    0.0, -999.0
06-09-2022, 00:09:46,    133,    0.0,   12.9,   0.00,   0.00, 1010.2,    0.2, -999.0
06-09-2022, 00:09:56,    133,    0.0,   13.0,   0.00,   0.00, 1010.2,    0.0, -999.0
06-09-2022, 00:10:06,    133,    0.0,   13.0,   0.00,   0.00, 1010.2,    0.0, -999.0
06-09-2022, 00:10:16,    133,    0.0,   13.0,   0.00,   0.00, 1010.2,    0.0, -999.0
06-09-2022, 00:10:26,    133,    0.0,   13.1,   0.00,   0.00, 1010.2,    0.0, -999.0
06-09-2022, 00:10:36,    133,    0.0,   13.0,   0.00,   0.00, 1010.2,    0.0, -999.0
06-09-2022, 00:10:46,    133,    0.0,   13.0,   0.00,   0.00, 1010.2,    0.0, -999.0
06-09-2022, 00:10:56,    133,    0.0,   13.1,   0.00,   0.00, 1010.2,    0.0, -999.0
06-09-2022, 00:11:06,    133,    0.0,   13.1,   0.00,   0.00, 1010.2,    0.0, -999.0
06-09-2022, 00:11:16,    133,    0.0,   13.0,   0.00,   0.00, 1010.2,    0.0, -999.0
06-09-2022, 00:11:25,    133,    0.0,   12.9,   0.00,   0.00, 1010.2,    0.0, -999.0
06-09-2022, 00:11:36,    134,    0.0,   13.1,   0.00,   0.00, 1010.2,    0.0, -999.0
06-09-2022, 00:11:46,    133,    0.0,   13.1,   0.00,   0.00, 1010.2,    0.0, -999.0
06-09-2022, 00:11:55,    134,    0.0,   13.2,   0.00,   0.00, 1010.2,    0.0, -999.0
06-09-2022, 00:12:05,    134,    0.0,   13.2,   0.00,   0.00, 1010.2,    0.2, -999.0
06-09-2022, 00:12:15,    133,    0.0,   13.2,   0.00,   0.00, 1010.2,    0.0, -999.0
06-09-2022, 00:12:25,    133,    0.0,   13.2,   0.00,   0.00, 1010.2,    0.0, -999.0
06-09-2022, 00:12:35,    133,    0.0,   13.2,   0.00,   0.00, 1010.2,    0.0, -999.0
06-09-2022, 00:12:45,    133,    0.0,   13.3,   0.00,   0.00, 1010.2,    0.0, -999.0
06-09-2022, 00:12:55,    134,    0.0,   13.2,   0.00,   0.00, 1010.2,    0.0, -999.0
06-09-2022, 00:13:05,    133,    0.0,   13.2,   0.00,   0.00, 1010.2,    0.3, -999.0
06-09-2022, 00:13:15,    134,    0.0,   13.2,   0.00,   0.00, 1010.2,    0.0, -999.0
06-09-2022, 00:13:25,    134,    0.0,   13.2,   0.00,   0.00, 1010.2,    0.0, -999.0
06-09-2022, 00:13:35,    133,    0.0,   13.3,   0.00,   0.00, 1010.2,    0.0, -999.0
06-09-2022, 00:13:45,    134,    0.0,   13.4,   0.00,   0.00, 1010.2,    0.0, -999.0
06-09-2022, 00:13:55,    133,    0.0,   13.3,   0.00,   0.00, 1010.2,    0.0, -999.0
06-09-2022, 00:14:05,    133,    0.0,   13.3,   0.00,   0.00, 1010.2,    0.0, -999.0
06-09-2022, 00:14:15,    133,    0.0,   13.3,   0.00,   0.00, 1010.2,    0.0, -999.0
06-09-2022, 00:14:24,    134,    0.0,   13.3,   0.00,   0.00, 1010.2,    0.0, -999.0
06-09-2022, 00:14:35,    134,    0.0,   13.2,   0.00,   0.00, 1010.2,    0.0, -999.0
06-09-2022, 00:14:45,    135,    0.0,   13.2,   0.00,   0.00, 1010.2,    0.0, -999.0
06-09-2022, 00:14:54,    133,    0.0,   13.3,   0.00,   0.00, 1010.2,    0.0, -999.0
06-09-2022, 00:15:04,    134,    0.0,   13.3,   0.00,   0.00, 1010.2,    0.0, -999.0
06-09-2022, 00:15:15,    134,    0.0,   13.3,   0.00,   0.00, 1010.2,    0.2, -999.0
06-09-2022, 00:15:24,    133,    0.0,   13.3,   0.00,   0.00, 1010.2,    0.0, -999.0
06-09-2022, 00:15:34,    133,    0.0,   13.2,   0.00,   0.00, 1010.2,    0.0, -999.0
06-09-2022, 00:15:44,    134,    0.0,   13.3,   0.00,   0.00, 1010.2,    0.0, -999.0
06-09-2022, 00:15:54,    133,    0.0,   13.3,   0.00,   0.00, 1010.2,    0.0, -999.0
06-09-2022, 00:16:04,    133,    0.0,   13.3,   0.00,   0.00, 1010.2,    0.0, -999.0
06-09-2022, 00:16:14,    133,    0.0,   13.2,   0.00,   0.00, 1010.2,    0.0, -999.0
06-09-2022, 00:16:24,    133,    0.0,   13.3,   0.00,   0.00, 1010.2,    0.0, -999.0
06-09-2022, 00:16:34,    133,    0.0,   13.3,   0.00,   0.00, 1010.2,    0.0, -999.0
06-09-2022, 00:16:44,    133,    0.0,   13.3,   0.00,   0.00, 1010.2,    0.0, -999.0
06-09-2022, 00:16:54,    134,    0.0,   13.4,   0.00,   0.00, 1010.2,    0.0, -999.0
06-09-2022, 00:17:04,    133,    0.0,   13.3,   0.00,   0.00, 1010.2,    0.0, -999.0
06-09-2022, 00:17:14,    133,    0.0,   13.3,   0.00,   0.00, 1010.2,    0.1, -999.0
06-09-2022, 00:17:24,    133,    0.0,   13.3,   0.00,   0.00, 1010.2,    0.0, -999.0
06-09-2022, 00:17:33,    133,    0.0,   13.3,   0.00,   0.00, 1010.2,    0.0, -999.0
06-09-2022, 00:17:44,    134,    0.0,   13.3,   0.00,   0.00, 1010.2,    0.0, -999.0
06-09-2022, 00:17:54,    133,    0.0,   13.3,   0.00,   0.00, 1010.2,    0.0, -999.0
06-09-2022, 00:18:03,    133,    0.0,   13.4,   0.00,   0.00, 1010.2,    0.0, -999.0
06-09-2022, 00:18:13,    133,    0.0,   13.3,   0.00,   0.00, 1010.2,    0.0, -999.0
06-09-2022, 00:18:23,    133,    0.0,   13.4,   0.00,   0.00, 1010.2,    0.0, -999.0
06-09-2022, 00:18:33,    134,    0.0,   13.3,   0.00,   0.00, 1010.2,    0.0, -999.0
06-09-2022, 00:18:43,    133,    0.0,   13.3,   0.00,   0.00, 1010.2,    0.0, -999.0
06-09-2022, 00:18:53,    133,    0.0,   13.4,   0.00,   0.00, 1010.2,    0.0, -999.0
06-09-2022, 00:19:03,    133,    0.0,   13.4,   0.00,   0.00, 1010.2,    0.0, -999.0
06-09-2022, 00:19:13,    133,    0.0,   13.4,   0.00,   0.00, 1010.2,    0.0, -999.0
06-09-2022, 00:19:23,    133,    0.0,   13.4,   0.00,   0.00, 1010.2,    0.0, -999.0
06-09-2022, 00:19:33,    133,    0.0,   13.4,   0.00,   0.00, 1010.2,    0.0, -999.0
06-09-2022, 00:19:43,    134,    0.0,   13.4,   0.00,   0.00, 1010.2,    0.0, -999.0
06-09-2022, 00:19:53,    133,    0.0,   13.3,   0.00,   0.00, 1010.2,    0.0, -999.0
06-09-2022, 00:20:03,    133,    0.0,   13.4,   0.00,   0.00, 1010.2,    0.0, -999.0
06-09-2022, 00:20:13,    133,    0.0,   13.3,   0.00,   0.00, 1010.2,    0.0, -999.0
06-09-2022, 00:20:23,    133,    0.0,   13.4,   0.00,   0.00, 1010.2,    0.0, -999.0
06-09-2022, 00:20:33,    134,    0.0,   13.3,   0.00,   0.00, 1010.2,    0.0, -999.0
06-09-2022, 00:20:42,    134,    0.0,   13.4,   0.00,   0.00, 1010.2,    0.0, -999.0
06-09-2022, 00:20:53,    133,    0.0,   13.4,   0.00,   0.00, 1010.2,    0.0, -999.0
06-09-2022, 00:21:02,    133,    0.0,   13.5,   0.00,   0.00, 1010.2,    0.1, -999.0
06-09-2022, 00:21:12,    133,    0.0,   13.5,   0.00,   0.00, 1010.2,    0.0, -999.0
06-09-2022, 00:21:22,    133,    0.0,   13.5,   0.00,   0.00, 1010.2,    0.4, -999.0
06-09-2022, 00:21:32,    133,    0.0,   13.5,   0.00,   0.00, 1010.2,    0.1, -999.0
06-09-2022, 00:21:42,    133,    0.0,   13.5,   0.00,   0.00, 1010.2,    0.1, -999.0
06-09-2022, 00:21:52,    133,    0.0,   13.5,   0.00,   0.00, 1010.2,    0.0, -999.0
06-09-2022, 00:22:02,    133,    0.0,   13.5,   0.00,   0.00, 1010.2,    0.3, -999.0
06-09-2022, 00:22:12,    133,    0.0,   13.5,   0.00,   0.00, 1010.2,    0.1, -999.0
06-09-2022, 00:22:22,    133,    0.0,   13.5,   0.00,   0.00, 1010.2,    0.3, -999.0
06-09-2022, 00:22:32,    133,    0.0,   13.5,   0.00,   0.00, 1010.2,    0.0, -999.0
06-09-2022, 00:22:42,    133,    0.0,   13.5,   0.00,   0.00, 1010.2,    0.3, -999.0
06-09-2022, 00:22:52,    134,    0.0,   13.5,   0.00,   0.00, 1010.2,    0.0, -999.0
06-09-2022, 00:23:02,    133,    0.0,   13.5,   0.00,   0.00, 1010.2,    0.3, -999.0
06-09-2022, 00:23:12,    133,    0.0,   13.5,   0.00,   0.00, 1010.2,    0.0, -999.0
06-09-2022, 00:23:22,    133,    0.0,   13.4,   0.00,   0.00, 1010.2,    0.0, -999.0
06-09-2022, 00:23:32,    133,    0.0,   13.4,   0.00,   0.00, 1010.1,    0.0, -999.0
06-09-2022, 00:23:41,    133,    0.0,   13.5,   0.00,   0.00, 1010.1,    0.0, -999.0
06-09-2022, 00:23:51,    133,    0.0,   13.5,   0.00,   0.00, 1010.1,    0.0, -999.0
06-09-2022, 00:24:02,    133,    0.0,   13.5,   0.00,   0.00, 1010.1,    0.1, -999.0
06-09-2022, 00:24:11,    133,    0.0,   13.4,   0.00,   0.00, 1010.1,    0.0, -999.0
06-09-2022, 00:24:21,    133,    0.0,   13.4,   0.00,   0.00, 1010.1,    0.0, -999.0
06-09-2022, 00:24:31,    133,    0.0,   13.5,   0.00,   0.00, 1010.1,    0.0, -999.0
06-09-2022, 00:24:41,    133,    0.0,   13.4,   0.00,   0.00, 1010.1,    0.0, -999.0
06-09-2022, 00:24:51,    133,    0.0,   13.4,   0.00,   0.00, 1010.1,    0.0, -999.0
06-09-2022, 00:25:01,    133,    0.0,   13.5,   0.00,   0.00, 1010.1,    0.0, -999.0
06-09-2022, 00:25:11,    133,    0.0,   13.5,   0.00,   0.00, 1010.1,    0.1, -999.0
06-09-2022, 00:25:21,    133,    0.0,   13.5,   0.00,   0.00, 1010.1,    0.0, -999.0
06-09-2022, 00:25:31,    133,    0.0,   13.5,   0.00,   0.00, 1010.1,    0.0, -999.0
06-09-2022, 00:25:41,    133,    0.0,   13.5,   0.00,   0.00, 1010.1,    0.0, -999.0
06-09-2022, 00:25:51,    134,    0.0,   13.5,   0.00,   0.00, 1010.1,    0.0, -999.0
06-09-2022, 00:26:01,    133,    0.0,   13.5,   0.00,   0.00, 1010.1,    0.0, -999.0
06-09-2022, 00:26:11,    133,    0.0,   13.5,   0.00,   0.00, 1010.1,    0.0, -999.0
06-09-2022, 00:26:20,    133,    0.0,   13.4,   0.00,   0.00, 1010.1,    0.0, -999.0
06-09-2022, 00:26:31,    133,    0.0,   13.5,   0.00,   0.00, 1010.1,    0.0, -999.0
06-09-2022, 00:26:41,    133,    0.0,   13.4,   0.00,   0.00, 1010.1,    0.0, -999.0
06-09-2022, 00:26:50,    133,    0.0,   13.5,   0.00,   0.00, 1010.1,    0.0, -999.0
06-09-2022, 00:27:00,    133,    0.0,   13.4,   0.00,   0.00, 1010.1,    0.1, -999.0
06-09-2022, 00:27:10,    133,    0.0,   13.4,   0.00,   0.00, 1010.1,    0.1, -999.0
06-09-2022, 00:27:20,    133,    0.0,   13.5,   0.00,   0.00, 1010.1,    0.0, -999.0
06-09-2022, 00:27:30,    133,    0.0,   13.4,   0.00,   0.00, 1010.1,    0.0, -999.0
06-09-2022, 00:27:40,    133,    0.0,   13.4,   0.00,   0.00, 1010.1,    0.0, -999.0
06-09-2022, 00:27:50,    133,    0.0,   13.5,   0.00,   0.00, 1010.1,    0.0, -999.0
06-09-2022, 00:28:00,    133,    0.0,   13.5,   0.00,   0.00, 1010.1,    0.0, -999.0
06-09-2022, 00:28:12,    133,    0.0,   13.4,   0.00,   0.00, 1010.1,    0.0, -999.0
06-09-2022, 00:28:20,    133,    0.0,   13.5,   0.00,   0.00, 1010.1,    0.0, -999.0
06-09-2022, 00:28:30,    133,    0.0,   13.5,   0.00,   0.00, 1010.1,    0.0, -999.0
06-09-2022, 00:28:40,    133,    0.0,   13.5,   0.00,   0.00, 1010.1,    0.0, -999.0
06-09-2022, 00:28:50,    133,    0.0,   13.5,   0.00,   0.00, 1010.1,    0.0, -999.0
06-09-2022, 00:29:00,    133,    0.0,   13.5,   0.00,   0.00, 1010.1,    0.0, -999.0
06-09-2022, 00:29:10,    133,    0.0,   13.3,   0.00,   0.00, 1010.1,    0.0, -999.0
06-09-2022, 00:29:20,    133,    0.0,   13.4,   0.00,   0.00, 1010.1,    0.0, -999.0
06-09-2022, 00:29:30,    133,    0.0,   13.4,   0.00,   0.00, 1010.1,    0.0, -999.0
06-09-2022, 00:29:40,    133,    0.0,   13.4,   0.00,   0.00, 1010.0,    0.3, -999.0
06-09-2022, 00:29:49,    133,    0.0,   13.3,   0.00,   0.00, 1010.1,    0.0, -999.0
06-09-2022, 00:29:59,    133,    0.0,   13.4,   0.00,   0.00, 1010.1,    0.0, -999.0
06-09-2022, 00:30:10,    133,    0.0,   13.4,   0.00,   0.00, 1010.1,    0.0, -999.0
06-09-2022, 00:30:19,    133,    0.0,   13.3,   0.00,   0.00, 1010.1,    0.0, -999.0
06-09-2022, 00:30:29,    133,    0.0,   13.3,   0.00,   0.00, 1010.1,    0.0, -999.0
06-09-2022, 00:30:39,    133,    0.0,   13.3,   0.00,   0.00, 1010.1,    0.0, -999.0
06-09-2022, 00:30:49,    133,    0.0,   13.3,   0.00,   0.00, 1010.1,    0.0, -999.0
06-09-2022, 00:30:59,    133,    0.0,   13.3,   0.00,   0.00, 1010.1,    0.2, -999.0
06-09-2022, 00:31:09,    133,    0.0,   13.3,   0.00,   0.00, 1010.0,    0.0, -999.0
06-09-2022, 00:31:19,    133,    0.0,   13.3,   0.00,   0.00, 1010.1,    0.0, -999.0
06-09-2022, 00:31:29,    133,    0.0,   13.3,   0.00,   0.00, 1010.0,    0.0, -999.0
06-09-2022, 00:31:39,    133,    0.0,   13.3,   0.00,   0.00, 1010.0,    0.0, -999.0
06-09-2022, 00:31:49,    133,    0.0,   13.2,   0.00,   0.00, 1010.0,    0.0, -999.0
06-09-2022, 00:31:59,    133,    0.0,   13.2,   0.00,   0.00, 1010.1,    0.0, -999.0
06-09-2022, 00:32:11,    133,    0.0,   13.3,   0.00,   0.00, 1010.1,    0.0, -999.0
06-09-2022, 00:32:19,    133,    0.0,   13.2,   0.00,   0.00, 1010.0,    0.0, -999.0
06-09-2022, 00:32:28,    133,    0.0,   13.2,   0.00,   0.00, 1010.0,    0.0, -999.0
06-09-2022, 00:32:39,    133,    0.0,   13.2,   0.00,   0.00, 1010.0,    0.0, -999.0
06-09-2022, 00:32:49,    133,    0.0,   13.1,   0.00,   0.00, 1010.0,    0.0, -999.0
06-09-2022, 00:32:58,    133,    0.0,   13.1,   0.00,   0.00, 1010.0,    0.0, -999.0
06-09-2022, 00:33:08,    133,    0.0,   13.2,   0.00,   0.00, 1010.0,    0.0, -999.0
06-09-2022, 00:33:18,    133,    0.0,   13.1,   0.00,   0.00, 1010.0,    0.0, -999.0
06-09-2022, 00:33:28,    133,    0.0,   13.1,   0.00,   0.00, 1010.0,    0.0, -999.0
06-09-2022, 00:33:38,    133,    0.0,   13.1,   0.00,   0.00, 1010.0,    0.0, -999.0
06-09-2022, 00:33:48,    133,    0.0,   13.1,   0.00,   0.00, 1010.0,    0.0, -999.0
06-09-2022, 00:33:58,    134,    0.0,   13.1,   0.00,   0.00, 1010.0,    0.0, -999.0
06-09-2022, 00:34:08,    133,    0.0,   13.1,   0.00,   0.00, 1010.0,    0.0, -999.0
06-09-2022, 00:34:18,    133,    0.0,   13.0,   0.00,   0.00, 1010.0,    0.0, -999.0
06-09-2022, 00:34:28,    133,    0.0,   13.1,   0.00,   0.00, 1010.0,    0.0, -999.0
06-09-2022, 00:34:38,    133,    0.0,   13.1,   0.00,   0.00, 1010.0,    0.0, -999.0
06-09-2022, 00:34:48,    133,    0.0,   13.0,   0.00,   0.00, 1010.0,    0.0, -999.0
06-09-2022, 00:34:58,    133,    0.0,   13.0,   0.00,   0.00, 1010.0,    0.0, -999.0
06-09-2022, 00:35:08,    133,    0.0,   13.0,   0.00,   0.00, 1010.0,    0.0, -999.0
06-09-2022, 00:35:18,    133,    0.0,   13.0,   0.00,   0.00, 1010.0,    0.0, -999.0
06-09-2022, 00:35:27,    133,    0.0,   13.0,   0.00,   0.00, 1010.0,    0.0, -999.0
06-09-2022, 00:35:37,    133,    0.0,   13.0,   0.00,   0.00, 1010.0,    0.0, -999.0
06-09-2022, 00:35:50,    133,    0.0,   13.0,   0.00,   0.00, 1010.0,    0.0, -999.0
06-09-2022, 00:35:57,    133,    0.0,   13.0,   0.00,   0.00, 1010.0,    0.0, -999.0
06-09-2022, 00:36:07,    133,    0.0,   13.0,   0.00,   0.00, 1010.0,    0.1, -999.0
06-09-2022, 00:36:18,    133,    0.0,   13.0,   0.00,   0.00, 1010.0,    0.0, -999.0
06-09-2022, 00:36:27,    134,    0.0,   13.0,   0.00,   0.00, 1010.0,    0.0, -999.0
06-09-2022, 00:36:37,    133,    0.0,   13.0,   0.00,   0.00, 1010.0,    0.0, -999.0
06-09-2022, 00:36:47,    133,    0.0,   13.0,   0.00,   0.00, 1010.0,    0.1, -999.0
06-09-2022, 00:36:57,    133,    0.0,   13.0,   0.00,   0.00, 1010.0,    0.2, -999.0
06-09-2022, 00:37:07,    133,    0.0,   13.0,   0.00,   0.00, 1010.0,    0.0, -999.0
06-09-2022, 00:37:17,    133,    0.0,   12.9,   0.00,   0.00, 1010.0,    0.1, -999.0
06-09-2022, 00:37:27,    133,    0.0,   13.0,   0.00,   0.00, 1010.0,    0.1, -999.0
06-09-2022, 00:37:37,    133,    0.0,   12.9,   0.00,   0.00, 1010.1,    0.0, -999.0
06-09-2022, 00:37:47,    133,    0.0,   12.9,   0.00,   0.00, 1010.1,    0.0, -999.0
06-09-2022, 00:37:57,    133,    0.0,   12.9,   0.00,   0.00, 1010.1,    0.0, -999.0
06-09-2022, 00:38:07,    133,    0.0,   13.0,   0.00,   0.00, 1010.1,    0.1, -999.0
06-09-2022, 00:38:17,    133,    0.0,   12.9,   0.00,   0.00, 1010.0,    0.0, -999.0
06-09-2022, 00:38:27,    133,    0.0,   12.9,   0.00,   0.00, 1010.1,    0.0, -999.0
06-09-2022, 00:38:36,    133,    0.0,   12.9,   0.00,   0.00, 1010.1,    0.0, -999.0
06-09-2022, 00:38:47,    133,    0.0,   12.8,   0.00,   0.00, 1010.1,    0.0, -999.0
06-09-2022, 00:38:57,    133,    0.0,   12.8,   0.00,   0.00, 1010.1,    0.0, -999.0
06-09-2022, 00:39:06,    133,    0.0,   12.9,   0.00,   0.00, 1010.1,    0.0, -999.0
06-09-2022, 00:39:16,    133,    0.0,   12.9,   0.00,   0.00, 1010.1,    0.0, -999.0
06-09-2022, 00:39:26,    133,    0.0,   12.9,   0.00,   0.00, 1010.1,    0.0, -999.0
06-09-2022, 00:39:36,    133,    0.0,   12.8,   0.00,   0.00, 1010.1,    0.0, -999.0
06-09-2022, 00:39:46,    133,    0.0,   12.9,   0.00,   0.00, 1010.1,    0.0, -999.0
06-09-2022, 00:39:56,    133,    0.0,   12.9,   0.00,   0.00, 1010.2,    0.0, -999.0
06-09-2022, 00:40:06,    133,    0.0,   12.9,   0.00,   0.00, 1010.1,    0.0, -999.0
06-09-2022, 00:40:16,    133,    0.0,   12.8,   0.00,   0.00, 1010.1,    0.0, -999.0
06-09-2022, 00:40:26,    133,    0.0,   12.9,   0.00,   0.00, 1010.1,    0.0, -999.0
06-09-2022, 00:40:36,    133,    0.0,   13.0,   0.00,   0.00, 1010.1,    0.0, -999.0
06-09-2022, 00:40:46,    133,    0.0,   13.0,   0.00,   0.00, 1010.1,    0.1, -999.0
06-09-2022, 00:40:56,    133,    0.0,   13.0,   0.00,   0.00, 1010.1,    0.2, -999.0
06-09-2022, 00:41:06,    133,    0.0,   12.9,   0.00,   0.00, 1010.2,    0.1, -999.0
06-09-2022, 00:41:16,    133,    0.0,   13.0,   0.00,   0.00, 1010.1,    0.1, -999.0
06-09-2022, 00:41:26,    133,    0.0,   12.9,   0.00,   0.00, 1010.2,    0.0, -999.0
06-09-2022, 00:41:35,    133,    0.0,   12.9,   0.00,   0.00, 1010.2,    0.0, -999.0
06-09-2022, 00:41:45,    133,    0.0,   13.0,   0.00,   0.00, 1010.2,    0.0, -999.0
06-09-2022, 00:41:56,    133,    0.0,   12.9,   0.00,   0.00, 1010.2,    0.0, -999.0
06-09-2022, 00:42:05,    133,    0.0,   13.0,   0.00,   0.00, 1010.2,    0.1, -999.0
06-09-2022, 00:42:15,    133,    0.0,   13.0,   0.00,   0.00, 1010.2,    0.0, -999.0
06-09-2022, 00:42:26,    133,    0.0,   13.0,   0.00,   0.00, 1010.2,    0.0, -999.0
06-09-2022, 00:42:35,    133,    0.0,   13.0,   0.00,   0.00, 1010.2,    0.0, -999.0
06-09-2022, 00:42:45,    133,    0.0,   13.0,   0.00,   0.00, 1010.2,    0.0, -999.0
06-09-2022, 00:42:55,    133,    0.0,   13.0,   0.00,   0.00, 1010.2,    0.0, -999.0
06-09-2022, 00:43:05,    132,    0.0,   13.0,   0.00,   0.00, 1010.2,    0.0, -999.0
06-09-2022, 00:43:15,    133,    0.0,   13.1,   0.00,   0.00, 1010.2,    0.1, -999.0
06-09-2022, 00:43:25,    133,    0.0,   13.0,   0.00,   0.00, 1010.2,    0.1, -999.0
06-09-2022, 00:43:35,    133,    0.0,   13.1,   0.00,   0.00, 1010.2,    0.0, -999.0
06-09-2022, 00:43:45,    133,    0.0,   13.0,   0.00,   0.00, 1010.2,    0.0, -999.0
06-09-2022, 00:43:55,    133,    0.0,   13.0,   0.00,   0.00, 1010.2,    0.1, -999.0
06-09-2022, 00:44:05,    133,    0.0,   13.0,   0.00,   0.00, 1010.2,    0.0, -999.0
06-09-2022, 00:44:14,    133,    0.0,   13.0,   0.00,   0.00, 1010.2,    0.0, -999.0
06-09-2022, 00:44:25,    133,    0.0,   13.1,   0.00,   0.00, 1010.2,    0.0, -999.0
06-09-2022, 00:44:35,    133,    0.0,   13.0,   0.00,   0.00, 1010.2,    0.0, -999.0
06-09-2022, 00:44:44,    133,    0.0,   13.0,   0.00,   0.00, 1010.2,    0.2, -999.0
06-09-2022, 00:44:54,    133,    0.0,   13.0,   0.00,   0.00, 1010.2,    0.0, -999.0
06-09-2022, 00:45:05,    133,    0.0,   13.0,   0.00,   0.00, 1010.2,    0.0, -999.0
06-09-2022, 00:45:14,    133,    0.0,   13.0,   0.00,   0.00, 1010.1,    0.0, -999.0
06-09-2022, 00:45:24,    133,    0.0,   12.9,   0.00,   0.00, 1010.2,    0.1, -999.0
06-09-2022, 00:45:34,    133,    0.0,   12.9,   0.00,   0.00, 1010.2,    0.0, -999.0
06-09-2022, 00:45:44,    133,    0.0,   13.0,   0.00,   0.00, 1010.2,    0.0, -999.0
06-09-2022, 00:45:54,    133,    0.0,   13.0,   0.00,   0.00, 1010.2,    0.0, -999.0
06-09-2022, 00:46:04,    133,    0.0,   12.9,   0.00,   0.00, 1010.2,    0.0, -999.0
06-09-2022, 00:46:14,    133,    0.0,   12.9,   0.00,   0.00, 1010.2,    0.0, -999.0
06-09-2022, 00:46:24,    133,    0.0,   12.8,   0.00,   0.00, 1010.2,    0.0, -999.0
06-09-2022, 00:46:34,    134,    0.0,   12.9,   0.00,   0.00, 1010.2,    0.0, -999.0
06-09-2022, 00:46:44,    133,    0.0,   12.9,   0.00,   0.00, 1010.2,    0.1, -999.0